Munising, MI

11:55 PM EDT on September 20, 2017 (GMT -0400)
Munising

Weather History for KP53 - February, 2013

Change the Weather History Date:

Friday, February 22, 2013

  Actual Average (KISQ) Record (KISQ)
Temperature  
Mean Temperature 20 °F -  
Max Temperature 25 °F 29 °F 45 °F (1961)
Min Temperature 15 °F 12 °F -18 °F (1963)
Degree Days  
Heating Degree Days 45    
Moisture  
Dew Point 16 °F    
Average Humidity 79    
Maximum Humidity 85    
Minimum Humidity 74    
Precipitation  
Precipitation 0.33 in - - ()
Sea Level Pressure  
Sea Level Pressure 30.06 in    
Wind  
Wind Speed 3 mph (East)    
Max Wind Speed 14 mph    
Max Gust Speed 17 mph    
Averages and records for this station are not official NWS values.
T = Trace of Precipitation, MM = Missing Value Source: NWS Daily Summary

Daily Weather History Graph

Daily Weather History Graph

Search for Another Location

Airport or City:

Trip Planner

Search our weather history database for the weather conditions in past years. The results will help you decide how hot, cold, wet, or windy it might be!

Date:

Astronomy

Feb. 22, 2013 Rise Set
Actual Time 7:37 AM EST 6:22 PM EST
Civil Twilight 7:07 AM EST 6:53 PM EST
Nautical Twilight 6:32 AM EST 7:28 PM EST
Astronomical Twilight 5:57 AM EST 8:03 PM EST
Moon 3:27 PM EST (2/22) 5:30 AM EST (2/22)
Length of Visible Light 11h 46m
Length of Day
10h 45m
Waxing Gibbous, 90% of the Moon is Illuminated
Feb 22
Waxing Gibbous
Feb 25
Full
Mar 4
Last Quarter
Mar 11
New
Mar 19
First Quarter

Hourly Weather History & Observations

Time (EST) Temp. Windchill Dew Point Humidity Pressure Visibility Wind Dir Wind Speed Gust Speed Precip Events Conditions
12:56 AM 15.1 °F - 10.0 °F 80% 30.33 in - Calm Calm - N/A   Unknown
1:56 AM 17.1 °F - 10.9 °F 77% 30.32 in - Calm Calm - N/A   Unknown
2:56 AM 18.0 °F 8.7 °F 10.9 °F 74% 30.29 in - SE 6.9 mph - N/A   Unknown
3:56 AM 18.0 °F - 12.9 °F 81% 30.26 in - Calm Calm - N/A   Unknown
4:56 AM 19.9 °F - 14.0 °F 78% 30.24 in - Calm Calm - N/A   Unknown
5:56 AM 19.9 °F 14.9 °F 15.1 °F 81% 30.22 in - East 3.5 mph - N/A   Unknown
6:56 AM 19.9 °F 13.4 °F 14.0 °F 78% 30.20 in - Variable 4.6 mph - N/A   Unknown
7:56 AM 19.9 °F 12.1 °F 15.1 °F 81% 30.17 in - Variable 5.8 mph - N/A   Unknown
8:56 AM 19.9 °F 12.1 °F 16.0 °F 85% 30.14 in - Variable 5.8 mph - N/A   Unknown
9:56 AM 19.9 °F 13.4 °F 16.0 °F 85% 30.11 in - East 4.6 mph - N/A   Unknown
10:56 AM 21.0 °F 13.4 °F 17.1 °F 85% 30.09 in - Variable 5.8 mph - N/A   Unknown
11:56 AM 23.0 °F 10.6 °F 18.0 °F 81% 30.04 in - East 13.8 mph 17.3 mph N/A   Unknown
12:56 PM 25.0 °F 16.3 °F 18.0 °F 75% 30.02 in - ESE 8.1 mph - 0.23 in   Unknown
1:56 PM 25.0 °F - 19.0 °F 78% 30.00 in - Calm Calm - 0.02 in   Unknown
2:56 PM 24.1 °F 13.7 °F 18.0 °F 77% 29.98 in - East 10.4 mph - 0.01 in   Unknown
3:56 PM 24.1 °F 14.4 °F 17.1 °F 75% 29.96 in - ESE 9.2 mph - 0.01 in   Unknown
4:56 PM 24.1 °F 17.0 °F 17.1 °F 75% 29.94 in - ESE 5.8 mph - 0.01 in   Unknown
5:56 PM 24.1 °F 17.0 °F 17.1 °F 75% 29.93 in - East 5.8 mph - 0.01 in   Unknown
6:56 PM 24.1 °F 17.0 °F 17.1 °F 75% 29.91 in - ENE 5.8 mph - N/A   Unknown
7:56 PM 24.1 °F - 18.0 °F 77% 29.90 in - Calm Calm - 0.01 in   Unknown
8:56 PM 24.1 °F - 19.0 °F 81% 29.88 in - Calm Calm - 0.01 in   Unknown
9:56 PM 25.0 °F - 19.9 °F 81% 29.86 in - Calm Calm - 0.01 in   Unknown
10:56 PM 25.0 °F - 19.9 °F 81% 29.83 in - Calm Calm - 0.01 in   Unknown
11:56 PM 25.0 °F - 21.0 °F 85% 29.82 in - Calm Calm - N/A   Unknown